Meteógrafos Informações Meteorológicas em tempo real
Aeroporto Presidente Prudente
15-12-2019 22:56

Temperatura atual: 26 graus 78 F    Umidade relativa: 69 %
Velocidade do vento: 00 nós 0 Km/h    Direção: 000 graus N
Ajuste do altímetro ..: 1014 HPA
Visibilidade: Ótima    Tempo presente: Céu Limpo

Observação
Data Hora BRTTempo°CUmidadePressãoVentoVisib.
15/12 - 22:56   Céu Limpo 26° 69% 1014 Norte/0 km/h OK
15/12 - 21:56   Céu Limpo 26° 74% 1014 Norte/0 km/h OK
15/12 - 20:56   Céu Limpo 26° 74% 1013 Norte/0 km/h OK
15/12 - 19:56   Trovoada recente 25° 69% 1012 Leste/12 km/h OK
15/12 - 18:56   Não Disponível 28° 70% 1012 Leste/9 km/h OK
15/12 - 17:55   Chovendo fraco 29° 62% 1012 Este-nordeste/10 km/h OK
15/12 - 16:56   Não Disponível 32° 46% 1012 Oeste-noroeste/7 km/h OK
15/12 - 15:56   Poucas nuvens esparsas 31° 49% 1014 Nordeste/10 km/h OK
15/12 - 14:56   Não Disponível 30° 51% 1014 Norte-nordeste/9 km/h OK
15/12 - 13:56   Não Disponível 30° 51% 1014 Norte-nordeste/10 km/h OK
15/12 - 12:56   Céu Limpo 29° 51% 1014 Norte-nordeste/12 km/h OK
15/12 - 11:56   Céu Limpo 28° 58% 1015 Norte/14 km/h OK
15/12 - 10:56   Céu Limpo 27° 61% 1015 Nordeste/16 km/h OK
15/12 - 09:56   Céu Limpo 26° 74% 1015 Este-nordeste/19 km/h OK
15/12 - 08:56   Não Disponível 24° 83% 1015 Leste/19 km/h OK
15/12 - 07:56   Parcialmente Nublado 22° 88% 1015 Leste/14 km/h OK
15/12 - 06:56   Poucas nuvens esparsas 21° 94% 1015 Este-sudeste/27 km/h OK
15/12 - 05:56   Chovendo fraco 21° 94% 1015 Este-sudeste/19 km/h OK
15/12 - 04:56   Chovendo fraco 21° 94% 1015 Sudeste/12 km/h 9000
15/12 - 03:56   Chovendo fraco 20° 100% 1015 Sudeste/16 km/h 8000
15/12 - 02:56   Chuva fraca e trovoadas 20° 100% 1016 Sul/23 km/h 6000
15/12 - 01:56   Trovoadas 22° 83% 1016 Oeste-sudoeste/28 km/h OK
15/12 - 00:56   Trovoadas na vizinhança 25° 78% 1016 Este-sudeste/14 km/h OK
14/12 - 23:56   Trovoadas na vizinhança 25° 78% 1016 Este-sudeste/16 km/h OK

Termo de Uso  |   Links Úteis  |   Imprensa  |  Anuncie  |  Fale Conosco  |  Versão Celular  |   Política de Privacidade

Apolo11.com - Todos os direitos reservados - 2000 - 2019

"Existem velas que iluminam tudo, menos o próprio candelabro" - Hebbel